| time (UTC) | temp C | wind direction | speed KPH | gust KPH | rain 1hr cm | rain 24hr cm | rain mn cm | humidity % | barometer mb |
| 20260505005250 | 20 | 19 | 1.6 | 14.5 | 0.00 | 0.00 | 0.00 | 64 | 1001.8 |
| 20260505004015 | 19 | 132 | 1.6 | 12.9 | 0.00 | 0.00 | 0.00 | 66 | 1001.9 |
| 20260505002756 | 20 | 110 | 1.6 | 19.3 | 0.00 | 0.00 | 0.00 | 63 | 1002.0 |
| 20260505001540 | 21 | 105 | 1.6 | 19.3 | 0.00 | 0.00 | 0.00 | 62 | 1001.9 |
| 20260505000315 | 21 | 117 | 4.8 | 14.5 | 0.00 | 0.00 | 0.00 | 61 | 1001.8 |
| 20260504235122 | 21 | 171 | 4.8 | 22.5 | 0.00 | 0.00 | 0.00 | 62 | 1001.8 |
| 20260504233918 | 21 | 119 | 4.8 | 22.5 | 0.00 | 0.00 | 0.00 | 61 | 1001.9 |
| 20260504232737 | 22 | 85 | 4.8 | 19.3 | 0.00 | 0.00 | 0.00 | 60 | 1002.1 |
| 20260504231552 | 22 | 252 | 4.8 | 19.3 | 0.00 | 0.00 | 0.00 | 57 | 1002.2 |
| 20260504230407 | 22 | 248 | 4.8 | 24.1 | 0.00 | 0.00 | 0.00 | 59 | 1002.4 |
| 20260504225148 | 22 | 244 | 6.4 | 24.1 | 0.00 | 0.00 | 0.00 | 55 | 1002.6 |
| 20260504223912 | 22 | 215 | 4.8 | 22.5 | 0.00 | 0.00 | 0.00 | 53 | 1002.7 |
| 20260504222721 | 22 | 311 | 4.8 | 29.0 | 0.00 | 0.00 | 0.00 | 52 | 1002.8 |
| 20260504221441 | 22 | 355 | 8.0 | 29.0 | 0.00 | 0.00 | 0.00 | 51 | 1002.9 |
| 20260504220248 | 22 | 69 | 4.8 | 25.7 | 0.00 | 0.00 | 0.00 | 49 | 1003.0 |
| 20260504215019 | 23 | 83 | 4.8 | 19.3 | 0.00 | 0.00 | 0.00 | 48 | 1002.9 |
| 20260504213806 | 24 | 254 | 6.4 | 29.0 | 0.00 | 0.00 | 0.00 | 48 | 1003.0 |
| 20260504212545 | 25 | 248 | 6.4 | 29.0 | 0.00 | 0.03 | 0.00 | 44 | 1002.7 |
| 20260504211407 | 25 | 221 | 4.8 | 22.5 | 0.00 | 0.03 | 0.00 | 44 | 1002.8 |
| 20260504210232 | 25 | 307 | 6.4 | 25.7 | 0.00 | 0.03 | 0.00 | 44 | 1002.6 |
| 20260504205020 | 25 | 248 | 6.4 | 24.1 | 0.00 | 0.03 | 0.00 | 45 | 1002.9 |
| 20260504203756 | 25 | 355 | 4.8 | 25.7 | 0.00 | 0.05 | 0.00 | 46 | 1002.9 |
| 20260504202517 | 25 | 313 | 8.0 | 32.2 | 0.00 | 0.05 | 0.00 | 47 | 1002.9 |
| 20260504201311 | 25 | 344 | 6.4 | 24.1 | 0.00 | 0.05 | 0.00 | 50 | 1003.1 |
| 20260504200111 | 25 | 156 | 4.8 | 24.1 | 0.00 | 0.05 | 0.00 | 47 | 1003.0 |
| 20260504194928 | 25 | 16 | 8.0 | 29.0 | 0.00 | 0.05 | 0.00 | 44 | 1003.1 |
| 20260504193653 | 25 | 336 | 6.4 | 29.0 | 0.00 | 0.05 | 0.00 | 48 | 1003.2 |
| 20260504192414 | 25 | 246 | 6.4 | 29.0 | 0.00 | 0.05 | 0.00 | 46 | 1003.5 |
| 20260504191219 | 25 | 294 | 6.4 | 29.0 | 0.00 | 0.05 | 0.00 | 50 | 1003.6 |
| 20260504190008 | 25 | 343 | 8.0 | 41.8 | 0.00 | 0.05 | 0.00 | 48 | 1003.7 |
| 20260504184749 | 25 | 162 | 6.4 | 41.8 | 0.00 | 0.05 | 0.00 | 45 | 1003.7 |
| 20260504183608 | 25 | 229 | 4.8 | 22.5 | 0.00 | 0.05 | 0.00 | 49 | 1003.6 |
| 20260504182344 | 25 | 211 | 6.4 | 24.1 | 0.00 | 0.05 | 0.00 | 51 | 1004.0 |
| 20260504181156 | 25 | 142 | 4.8 | 17.7 | 0.00 | 0.05 | 0.00 | 54 | 1004.0 |
| 20260504180004 | 24 | 269 | 6.4 | 24.1 | 0.00 | 0.05 | 0.00 | 51 | 1004.1 |
| 20260504174740 | 23 | 51 | 6.4 | 24.1 | 0.00 | 0.05 | 0.00 | 51 | 1003.9 |
| 20260504173519 | 24 | 263 | 4.8 | 17.7 | 0.00 | 0.05 | 0.00 | 51 | 1004.0 |
| 20260504172247 | 23 | 83 | 6.4 | 19.3 | 0.00 | 0.05 | 0.00 | 55 | 1004.3 |
| 20260504171113 | 23 | 221 | 6.4 | 29.0 | 0.00 | 0.05 | 0.00 | 58 | 1004.5 |
| 20260504151052 | 19 | 112 | 1.6 | 12.9 | 0.00 | 0.05 | 0.00 | 61 | 1006.3 |
| 20260504141135 | 17 | 112 | 1.6 | 12.9 | 0.00 | 0.05 | 0.00 | 64 | 1006.8 |
| 20260504081958 | 10 | 162 | 0.0 | 12.9 | 0.00 | 0.05 | 0.00 | 77 | 1007.9 |
| 20260504080825 | 9 | 182 | 0.0 | 12.9 | 0.00 | 0.05 | 0.00 | 79 | 1008.0 |
| 20260504050748 | 7 | 130 | 0.0 | 3.2 | 0.00 | 0.05 | 0.00 | 86 | 1009.9 |
| 20260504045613 | 7 | 159 | 0.0 | 0.0 | 0.00 | 0.05 | 0.00 | 85 | 1009.9 |
| 20260504044354 | 7 | 150 | 0.0 | 0.0 | 0.00 | 0.05 | 0.00 | 84 | 1010.0 |
| 20260504043145 | 8 | 113 | 0.0 | 4.8 | 0.00 | 0.05 | 0.00 | 84 | 1010.0 |
| 20260504042007 | 8 | 136 | 0.0 | 4.8 | 0.00 | 0.05 | 0.00 | 84 | 1010.1 |
| 20260504040741 | 8 | 148 | 1.6 | 6.4 | 0.00 | 0.05 | 0.00 | 83 | 1010.3 |
| 20260504035558 | 8 | 138 | 1.6 | 6.4 | 0.00 | 0.05 | 0.05 | 83 | 1010.3 |
| 20260504034354 | 8 | 123 | 1.6 | 4.8 | 0.00 | 0.05 | 0.05 | 83 | 1010.4 |
| 20260504033201 | 8 | 130 | 0.0 | 4.8 | 0.00 | 0.05 | 0.05 | 82 | 1010.5 |
| 20260504032018 | 8 | 123 | 1.6 | 6.4 | 0.00 | 0.05 | 0.05 | 81 | 1010.7 |
| 20260504030804 | 8 | 148 | 1.6 | 11.3 | 0.00 | 0.05 | 0.05 | 81 | 1010.8 |
| 20260504025546 | 8 | 136 | 1.6 | 11.3 | 0.00 | 0.05 | 0.05 | 80 | 1010.9 |
| 20260504024404 | 9 | 152 | 1.6 | 11.3 | 0.00 | 0.05 | 0.05 | 80 | 1011.1 |
| 20260504023211 | 8 | 143 | 1.6 | 6.4 | 0.00 | 0.05 | 0.05 | 80 | 1011.0 |
| 20260504022026 | 8 | 139 | 0.0 | 12.9 | 0.00 | 0.05 | 0.05 | 80 | 1011.1 |
| 20260504020836 | 10 | 126 | 4.8 | 12.9 | 0.00 | 0.05 | 0.05 | 78 | 1011.1 |
| 20260504015643 | 9 | 120 | 4.8 | 12.9 | 0.00 | 0.05 | 0.05 | 78 | 1011.2 |
| 20260504014408 | 10 | 124 | 4.8 | 12.9 | 0.00 | 0.05 | 0.05 | 76 | 1011.1 |
| 20260504013215 | 10 | 123 | 1.6 | 12.9 | 0.00 | 0.05 | 0.05 | 76 | 1011.2 |
| 20260504012035 | 10 | 199 | 4.8 | 14.5 | 0.00 | 0.05 | 0.05 | 75 | 1011.3 |
| 20260504010859 | 10 | 117 | 4.8 | 14.5 | 0.00 | 0.05 | 0.05 | 75 | 1011.1 |